SCP
0 0 0 0 0 0 -0 -0 0 -0 -0 -0 -0 -0 0 0 0 0 0 0 0 -0 -0 -0 -0 -0 -0 -0 -0 -0 -0 -0 0 -0 -0 -0 -0 -0 -0 0 0 0 -0
0 0 0 0 0 0 -0 0 0 0 -0 -0 -0 -0 -0 -0 -0 -0 0 0 0 -0 -0 -0 -0 -0 -0 -0 -0 -0 -0 0 -0 -0 0 0 0 -0 -0 -0 -0 0 -0
0 -0 0 0 0 0 -0 -0 0 0 0 -0 -0 -0 -0 -0 0 0 0 0 0 -0 -0 -0 -0 -0 -0 -0 -0 -0 0 0 0 0 0 0 0 -0 -0 -0 0 0 0
-0 -0 0 -0 0 0 0 -0 0 0 0 -0 -0 -0 -0 -0 0 -0 -0 0 -0 -0 -0 -0 -0 -0 -0 0 0 0 0 0 0 0 0 0 0 0 0 0 0 0 0
-0 -0 -0 -0 0 0 0 -0 -0 0 0 -0 -0 -0 -0 0 -0 -0 -0 -0 -0 -0 -0 -0 -0 -0 0 0 0 0 0 0 -0 0 0 0 0 0 0 0 0 0 0
-0 -0 -0 -0 0 -0 -0 -0 -0 -0 -0 -0 -0 -0 -0 -0 0 -0 -0 0 -0 0 0 0 0 0 0 0 0 0 -0 -0 0 0 0 0 0 0 0 0 0 0 0
-0 -0 -0 -0 -0 -0 -0 0 -0 -0 0 -0 -0 -0 -0 -0 -0 -0 -0 0 0 0 0 0 0 0 0 0 0 0 0 0 0 0 0 0 0 0 0 0 0 0 0
-0 -0 -0 -0 -0 -0 -0 -0 -0 -0 -0 -0 -0 -0 -0 -0 -0 -0 0 0 0 0 0 0 0 0 0 0 0 0 -0 -0 0 0 0 0 0 0 0 0 0 0 0
-0 -0 -0 -0 -0 -0 -0 -0 -0 -0 -0 -0 -0 -0 -0 -0 -0 -0 0 0 0 0 0 0 0 0 0 0 0 0 0 0 0 0 0 0 0 0 0 0 0 0 0
-0 -0 -0 -0 -0 -0 -0 -0 -0 -0 -0 -0 -0 -0 -0 -0 -0 -0 0 0 0 0 0 0 0 0 0 0 0 0 0 0 0 0 0 0 0 0 0 0 0 0 0
-0 -0 -0 -0 -0 -0 -0 -0 -0 -0 -0 -0 -0 -0 -0 -0 0 0 0 0 0 0 0 0 0 0 0 0 0 0 0 0 0 0 0 0 0 0 0 0 0 0 0
-0 -0 -0 -0 -0 -0 -0 -0 -0 -0 -0 -0 -0 -0 -0 -0 0 0 0 0 0 0 0 0 0 0 0 0 0 0 0 0 0 0 0 0 0 0 0 0 0 0 0
-0 0 0 -0 -0 -0 -0 -0 0 -0 -0 -0 -0 -0 -0 -0 -0 0 0 0 0 0 0 0 0 0 0 0 0 0 0 0 0 0 0 0 0 0 0 0 0 0 0
-0 -0 0 0 0 -0 0 0 -0 0 -0 -0 -0 -0 -0 -0 0 0 0 0 0 0 0 0 0 0 0 0 0 0 0 0 0 0 0 0 0 0 0 0 0 0 0
0 0 -0 0 0 0 0 0 0 0 0 -0 -0 -0 -0 0 0 0 0 0 0 0 0 0 0 0 0 0 0 0 0 0 0 0 0 0 0 0 0 0 0 0 0
0 0 0 0 0 0 0 0 0 0 0 0 0 0 0 0 0 0 0 0 0 0 0 0 0 0 0 0 0 0 0 0 0 0 0 0 0 0 0 0 0 0 0
0 0 0 0 0 0 0 0 0 0 0 0 0 0 0 0 0 0 0 0 0 0 0 0 0 0 0 0 0 0 0 0 0 0 0 0 0 0 0 0 0 0 0
0 0 0 0 0 0 0 0 0 0 0 0 0 0 0 0 0 0 0 0 0 0 0 0 0 0 0 0 0 0 0 0 0 0 0 0 0 0 0 0 0 0 0
0 0 0 0 0 0 0 0 0 0 0 0 0 0 0 0 0 0 0 0 0 0 0 0 0 0 0 0 0 0 0 0 0 0 0 0 0 0 0 0 0 0 0
0 0 0 0 0 0 0 0 0 0 0 0 0 0 0 0 0 0 0 0 0 0 0 0 0 0 0 0 0 0 0 0 0 0 0 0 0 0 0 0 0 0 0
0 0 0 0 0 0 0 0 0 0 0 0 0 0 0 0 0 0 0 0 0 0 0 0 0 0 0 0 0 0 0 0 0 0 0 0 0 0 0 0 0 0 0
0 0 0 0 0 0 0 0 0 0 0 0 0 0 0 0 0 0 0 0 0 0 0 0 0 0 0 0 0 0 0 0 0 0 0 0 0 0 0 0 0 0 0
0 0 0 0 0 0 0 0 0 0 0 0 0 0 0 0 0 0 0 0 0 0 0 0 0 0 0 0 0 0 0 0 0 0 0 0 0 0 0 0 0 0 0
0 0 0 0 0 0 0 0 0 0 0 0 0 0 0 0 0 0 0 0 0 0 0 0 0 0 0 0 0 0 0 0 0 0 0 0 0 0 0 0 0 0 0
0 0 0 0 0 0 0 0 0 0 0 0 0 0 0 0 0 0 0 0 0 0 0 0 0 0 0 0 0 0 0 0 0 0 0 0 0 0 0 0 0 0 0
0 0 0 0 0 0 0 0 0 0 0 0 0 0 0 0 0 0 0 0 0 0 0 0 0 0 0 0 0 0 0 0 0 0 0 0 0 0 0 0 0 0 0
Wind_Speed_500mb
15 15 12 16 18 15 12 21 22 21 22 23 23 23 23 23 22 24 26 25 29 35 36 34 33 32 30 28 26 29 32 37 38 48 40 34 37 40 34 30 36 29 26
22 19 17 21 21 16 17 23 26 22 21 20 20 21 19 15 18 19 17 25 34 34 33 32 31 30 30 30 32 32 33 36 48 54 45 41 41 37 42 42 36 36 33
28 20 22 26 24 17 18 22 27 24 20 17 16 15 14 15 18 21 31 31 34 32 31 32 31 31 30 31 31 32 35 40 53 50 26 35 34 32 33 30 28 29 35
29 25 25 27 23 20 21 25 26 23 22 15 13 13 17 20 18 26 31 29 28 29 29 31 31 32 30 31 31 32 36 39 40 40 31 32 31 27 23 21 22 27 32
27 25 26 27 22 22 24 24 22 21 20 18 20 22 21 19 23 23 30 29 26 22 27 28 30 30 30 31 32 34 36 44 42 32 34 31 30 29 29 26 25 29 28
30 25 27 27 20 22 23 22 25 23 19 22 24 22 20 18 20 23 23 26 24 24 26 29 28 27 28 30 32 34 33 45 33 31 28 29 31 33 38 36 33 28 25
32 26 28 25 21 21 21 24 22 21 24 24 23 24 23 22 21 22 24 24 23 22 24 26 26 26 27 29 31 32 31 36 29 25 29 27 31 33 29 27 28 29 28
34 30 28 27 22 21 20 23 24 18 22 23 17 18 19 19 20 20 21 21 21 21 21 23 24 25 25 27 28 29 28 37 28 25 28 26 28 29 26 28 29 30 28
31 32 30 29 25 23 21 22 19 20 21 21 15 12 14 15 17 17 16 17 18 18 18 19 21 23 23 24 25 26 27 28 24 23 17 20 26 27 26 29 31 32 31
31 34 29 29 27 25 24 21 18 18 18 15 11 9 8 10 12 13 13 14 14 14 15 15 17 20 22 21 21 21 20 24 20 18 20 22 24 23 25 28 30 31 31
37 34 29 30 28 25 25 22 19 17 16 14 12 11 9 7 8 8 11 11 11 11 11 12 13 15 16 17 16 16 18 17 16 14 17 20 21 23 24 25 25 26 28
45 45 40 30 31 29 25 24 21 17 15 13 12 12 12 10 9 6 8 8 7 8 8 8 9 9 10 10 9 11 13 14 14 15 16 18 20 22 22 24 25 25 24
44 48 45 36 32 31 28 27 24 23 20 16 14 14 13 10 10 8 7 8 6 5 4 4 4 5 4 5 4 6 8 9 9 11 13 15 19 22 24 26 27 26 26
45 47 49 43 41 36 32 29 24 24 23 19 17 15 13 12 11 11 8 6 6 6 4 3 2 2 2 1 2 2 3 5 6 9 14 17 21 24 25 27 30 30 30
44 46 51 50 44 42 39 33 29 28 25 23 22 20 18 15 13 12 11 10 9 10 9 9 8 7 7 7 7 7 9 8 10 13 18 20 25 26 31 30 34 32 29
47 48 49 52 49 47 44 40 35 34 31 30 28 25 23 21 19 17 14 13 13 13 14 13 13 13 13 13 13 14 14 15 15 17 21 26 28 31 31 34 36 31 30
49 48 51 53 51 49 46 45 43 39 37 37 34 33 30 28 25 23 21 19 18 16 16 15 16 16 17 19 18 20 21 21 20 23 25 29 34 37 32 35 31 29 32
50 51 55 56 53 52 50 45 45 45 43 41 40 39 36 34 32 31 29 26 24 21 18 17 17 16 18 19 21 23 26 26 26 28 32 33 34 34 34 29 30 28 29
50 55 58 58 55 54 53 49 47 47 47 44 44 44 44 42 39 37 35 31 29 24 22 21 19 19 18 22 26 27 29 31 31 33 35 34 35 31 27 35 29 27 25
48 52 53 58 57 55 54 55 52 52 50 48 48 46 46 47 44 41 38 36 32 29 26 24 25 24 23 27 33 33 32 31 29 34 35 38 30 25 30 29 28 31 31
47 52 55 57 59 60 60 62 60 58 50 48 52 47 42 44 45 44 44 39 35 33 29 29 29 29 28 27 32 31 27 35 32 35 36 36 28 26 33 31 29 26 28
53 57 61 63 63 66 67 65 64 60 54 50 48 47 44 42 42 45 40 36 36 33 31 31 31 30 31 28 31 31 30 22 30 33 30 25 28 32 37 33 26 28 26
62 64 67 68 69 69 70 66 65 62 57 58 58 56 51 46 48 41 38 42 40 37 37 37 35 37 35 34 33 32 21 15 22 30 37 41 48 39 35 29 21 21 23
67 65 66 69 71 73 72 72 74 73 75 66 58 57 54 50 49 45 42 43 41 44 45 41 40 39 35 36 38 40 42 48 48 32 26 31 37 37 34 24 22 20 28
65 69 71 72 74 76 76 76 75 76 72 65 59 57 53 51 51 50 45 43 44 49 42 38 39 40 38 34 36 41 45 43 47 51 48 29 31 26 19 18 10 27 34
64 69 72 73 77 76 80 81 79 76 72 66 64 61 57 52 49 49 45 42 42 40 38 39 41 45 42 38 39 42 44 43 42 43 33 34 32 19 17 12 23 30 31
Wind_Direction_500mb
147 140 111 109 122 119 104 123 116 109 105 100 97 94 92 84 74 72 77 80 82 77 75 79 78 76 76 75 75 75 69 67 64 63 60 65 64 63 68 63 59 66 62
143 140 121 122 118 118 105 129 127 115 115 109 106 101 98 84 75 76 75 80 83 81 80 78 75 75 75 74 72 70 69 69 69 66 51 58 66 65 67 72 71 65 55
136 137 125 129 119 121 107 127 143 131 130 124 128 130 113 99 88 84 90 83 87 83 78 76 71 73 78 79 76 71 70 75 80 72 66 60 69 72 76 79 65 49 48
144 128 134 137 117 114 101 114 143 146 142 136 165 148 112 108 93 98 100 91 85 81 77 74 75 72 74 77 76 75 76 77 84 98 71 69 62 65 68 60 48 45 59
143 138 139 139 123 112 106 109 127 150 162 127 103 109 109 104 98 107 105 102 96 87 78 73 70 70 72 76 77 81 82 78 68 58 64 62 56 50 54 51 53 59 65
147 145 142 141 138 112 108 107 111 108 110 120 111 103 99 107 114 101 113 102 96 84 78 76 73 70 73 80 83 84 79 76 68 68 61 57 60 56 59 56 60 57 54
148 153 146 141 145 123 115 112 111 97 96 101 107 99 97 90 91 97 101 91 90 85 83 77 72 72 79 82 83 83 79 84 75 67 70 64 56 58 59 56 48 45 48
158 155 152 147 145 140 128 124 117 119 102 101 114 106 101 96 93 93 92 91 90 87 87 80 75 72 80 83 84 81 76 78 70 57 59 54 51 56 52 47 44 42 45
167 160 161 157 152 149 144 144 134 131 127 129 126 102 102 101 100 103 99 92 89 89 88 82 78 78 84 85 84 80 75 76 73 81 69 60 57 49 43 43 40 37 36
174 166 169 167 163 160 159 155 148 137 142 141 137 129 117 113 111 117 118 101 93 90 89 86 82 80 80 82 81 77 72 65 66 58 55 53 52 47 38 36 32 30 30
178 176 173 175 171 173 172 169 165 158 152 151 148 144 137 118 113 129 123 121 108 96 91 87 83 82 78 76 75 68 61 62 63 64 52 47 42 36 30 25 20 20 20
188 185 179 181 180 180 180 178 176 174 172 168 165 163 152 167 174 168 152 147 130 108 98 91 89 87 77 72 67 59 54 56 52 51 45 35 28 22 16 10 6 6 9
195 192 193 182 190 189 189 188 188 187 190 190 184 180 181 186 188 202 176 174 166 153 130 112 96 81 86 101 75 56 37 38 34 23 21 16 10 4 358 352 354 357 1
197 205 200 193 201 194 200 198 201 202 201 202 206 203 200 200 197 202 208 207 208 209 209 217 211 245 253 260 296 297 353 347 352 352 347 346 346 346 342 342 342 343 343
202 207 210 207 205 208 205 205 209 212 214 215 218 217 216 217 216 217 224 227 230 234 237 245 254 266 269 273 289 290 301 312 318 327 330 334 334 332 332 332 332 329 324
205 207 214 214 213 214 215 214 216 218 219 224 227 230 228 229 231 231 235 240 243 242 247 253 260 268 278 281 282 286 290 302 311 313 317 321 327 326 324 327 326 321 324
207 208 212 219 218 220 222 225 226 226 225 230 232 235 235 235 239 240 242 244 248 254 259 263 267 273 284 290 290 292 293 296 301 306 310 316 316 317 316 318 320 322 322
208 208 214 221 219 222 226 227 231 232 231 236 238 241 242 241 242 244 246 249 251 256 263 268 275 284 292 294 298 295 296 297 298 301 303 306 306 312 315 320 318 321 323
214 214 217 221 221 223 226 228 234 239 236 236 242 244 246 246 245 247 248 250 254 257 263 274 280 284 292 301 303 302 301 299 301 300 302 303 306 308 309 319 315 319 318
213 211 213 220 222 224 226 230 233 238 238 234 238 244 246 249 248 247 249 250 256 259 263 272 278 279 285 288 292 298 304 300 298 294 302 301 301 292 313 311 312 316 320
212 209 210 214 220 222 222 225 229 234 235 236 240 243 245 247 250 248 255 251 255 257 260 267 273 280 282 287 290 298 295 299 294 296 302 296 291 293 311 306 304 312 316
212 213 212 217 220 222 227 229 233 239 239 243 245 250 241 247 249 249 252 249 252 255 257 261 269 274 277 282 283 290 303 307 283 286 287 287 276 288 305 297 304 313 312
217 218 218 222 223 225 228 230 234 239 241 240 243 244 246 246 248 249 247 250 250 252 252 259 262 265 273 280 281 276 282 270 275 282 287 297 288 296 290 292 288 307 310
225 223 224 224 226 228 231 231 235 239 239 245 249 251 253 248 250 252 252 250 250 253 253 260 266 270 270 275 279 280 282 279 281 280 271 279 293 285 289 296 301 315 324
232 230 231 231 231 233 234 238 236 241 246 249 251 251 251 250 249 251 252 251 251 247 248 253 259 263 267 269 272 279 283 285 291 283 285 287 293 278 286 287 283 310 302
235 235 237 236 238 239 239 239 241 242 246 247 247 248 250 248 246 247 251 250 253 254 246 251 255 258 261 262 265 271 282 285 288 290 288 299 289 277 274 255 308 304 296
Wind_Speed_850mb
15 15 12 16 18 15 12 21 22 21 22 23 23 23 23 23 22 24 26 25 29 35 36 34 33 32 30 28 26 29 32 37 38 48 40 34 37 40 34 30 36 29 26
22 19 17 21 21 16 17 23 26 22 21 20 20 21 19 15 18 19 17 25 34 34 33 32 31 30 30 30 32 32 33 36 48 54 45 41 41 37 42 42 36 36 33
28 20 22 26 24 17 18 22 27 24 20 17 16 15 14 15 18 21 31 31 34 32 31 32 31 31 30 31 31 32 35 40 53 50 26 35 34 32 33 30 28 29 35
29 25 25 27 23 20 21 25 26 23 22 15 13 13 17 20 18 26 31 29 28 29 29 31 31 32 30 31 31 32 36 39 40 40 31 32 31 27 23 21 22 27 32
27 25 26 27 22 22 24 24 22 21 20 18 20 22 21 19 23 23 30 29 26 22 27 28 30 30 30 31 32 34 36 44 42 32 34 31 30 29 29 26 25 29 28
30 25 27 27 20 22 23 22 25 23 19 22 24 22 20 18 20 23 23 26 24 24 26 29 28 27 28 30 32 34 33 45 33 31 28 29 31 33 38 36 33 28 25
32 26 28 25 21 21 21 24 22 21 24 24 23 24 23 22 21 22 24 24 23 22 24 26 26 26 27 29 31 32 31 36 29 25 29 27 31 33 29 27 28 29 28
34 30 28 27 22 21 20 23 24 18 22 23 17 18 19 19 20 20 21 21 21 21 21 23 24 25 25 27 28 29 28 37 28 25 28 26 28 29 26 28 29 30 28
31 32 30 29 25 23 21 22 19 20 21 21 15 12 14 15 17 17 16 17 18 18 18 19 21 23 23 24 25 26 27 28 24 23 17 20 26 27 26 29 31 32 31
31 34 29 29 27 25 24 21 18 18 18 15 11 9 8 10 12 13 13 14 14 14 15 15 17 20 22 21 21 21 20 24 20 18 20 22 24 23 25 28 30 31 31
37 34 29 30 28 25 25 22 19 17 16 14 12 11 9 7 8 8 11 11 11 11 11 12 13 15 16 17 16 16 18 17 16 14 17 20 21 23 24 25 25 26 28
45 45 40 30 31 29 25 24 21 17 15 13 12 12 12 10 9 6 8 8 7 8 8 8 9 9 10 10 9 11 13 14 14 15 16 18 20 22 22 24 25 25 24
44 48 45 36 32 31 28 27 24 23 20 16 14 14 13 10 10 8 7 8 6 5 4 4 4 5 4 5 4 6 8 9 9 11 13 15 19 22 24 26 27 26 26
45 47 49 43 41 36 32 29 24 24 23 19 17 15 13 12 11 11 8 6 6 6 4 3 2 2 2 1 2 2 3 5 6 9 14 17 21 24 25 27 30 30 30
44 46 51 50 44 42 39 33 29 28 25 23 22 20 18 15 13 12 11 10 9 10 9 9 8 7 7 7 7 7 9 8 10 13 18 20 25 26 31 30 34 32 29
47 48 49 52 49 47 44 40 35 34 31 30 28 25 23 21 19 17 14 13 13 13 14 13 13 13 13 13 13 14 14 15 15 17 21 26 28 31 31 34 36 31 30
49 48 51 53 51 49 46 45 43 39 37 37 34 33 30 28 25 23 21 19 18 16 16 15 16 16 17 19 18 20 21 21 20 23 25 29 34 37 32 35 31 29 32
50 51 55 56 53 52 50 45 45 45 43 41 40 39 36 34 32 31 29 26 24 21 18 17 17 16 18 19 21 23 26 26 26 28 32 33 34 34 34 29 30 28 29
50 55 58 58 55 54 53 49 47 47 47 44 44 44 44 42 39 37 35 31 29 24 22 21 19 19 18 22 26 27 29 31 31 33 35 34 35 31 27 35 29 27 25
48 52 53 58 57 55 54 55 52 52 50 48 48 46 46 47 44 41 38 36 32 29 26 24 25 24 23 27 33 33 32 31 29 34 35 38 30 25 30 29 28 31 31
47 52 55 57 59 60 60 62 60 58 50 48 52 47 42 44 45 44 44 39 35 33 29 29 29 29 28 27 32 31 27 35 32 35 36 36 28 26 33 31 29 26 28
53 57 61 63 63 66 67 65 64 60 54 50 48 47 44 42 42 45 40 36 36 33 31 31 31 30 31 28 31 31 30 22 30 33 30 25 28 32 37 33 26 28 26
62 64 67 68 69 69 70 66 65 62 57 58 58 56 51 46 48 41 38 42 40 37 37 37 35 37 35 34 33 32 21 15 22 30 37 41 48 39 35 29 21 21 23
67 65 66 69 71 73 72 72 74 73 75 66 58 57 54 50 49 45 42 43 41 44 45 41 40 39 35 36 38 40 42 48 48 32 26 31 37 37 34 24 22 20 28
65 69 71 72 74 76 76 76 75 76 72 65 59 57 53 51 51 50 45 43 44 49 42 38 39 40 38 34 36 41 45 43 47 51 48 29 31 26 19 18 10 27 34
64 69 72 73 77 76 80 81 79 76 72 66 64 61 57 52 49 49 45 42 42 40 38 39 41 45 42 38 39 42 44 43 42 43 33 34 32 19 17 12 23 30 31
Wind_Direction_850mb
147 140 111 109 122 119 104 123 116 109 105 100 97 94 92 84 74 72 77 80 82 77 75 79 78 76 76 75 75 75 69 67 64 63 60 65 64 63 68 63 59 66 62
143 140 121 122 118 118 105 129 127 115 115 109 106 101 98 84 75 76 75 80 83 81 80 78 75 75 75 74 72 70 69 69 69 66 51 58 66 65 67 72 71 65 55
136 137 125 129 119 121 107 127 143 131 130 124 128 130 113 99 88 84 90 83 87 83 78 76 71 73 78 79 76 71 70 75 80 72 66 60 69 72 76 79 65 49 48
144 128 134 137 117 114 101 114 143 146 142 136 165 148 112 108 93 98 100 91 85 81 77 74 75 72 74 77 76 75 76 77 84 98 71 69 62 65 68 60 48 45 59
143 138 139 139 123 112 106 109 127 150 162 127 103 109 109 104 98 107 105 102 96 87 78 73 70 70 72 76 77 81 82 78 68 58 64 62 56 50 54 51 53 59 65
147 145 142 141 138 112 108 107 111 108 110 120 111 103 99 107 114 101 113 102 96 84 78 76 73 70 73 80 83 84 79 76 68 68 61 57 60 56 59 56 60 57 54
148 153 146 141 145 123 115 112 111 97 96 101 107 99 97 90 91 97 101 91 90 85 83 77 72 72 79 82 83 83 79 84 75 67 70 64 56 58 59 56 48 45 48
158 155 152 147 145 140 128 124 117 119 102 101 114 106 101 96 93 93 92 91 90 87 87 80 75 72 80 83 84 81 76 78 70 57 59 54 51 56 52 47 44 42 45
167 160 161 157 152 149 144 144 134 131 127 129 126 102 102 101 100 103 99 92 89 89 88 82 78 78 84 85 84 80 75 76 73 81 69 60 57 49 43 43 40 37 36
174 166 169 167 163 160 159 155 148 137 142 141 137 129 117 113 111 117 118 101 93 90 89 86 82 80 80 82 81 77 72 65 66 58 55 53 52 47 38 36 32 30 30
178 176 173 175 171 173 172 169 165 158 152 151 148 144 137 118 113 129 123 121 108 96 91 87 83 82 78 76 75 68 61 62 63 64 52 47 42 36 30 25 20 20 20
188 185 179 181 180 180 180 178 176 174 172 168 165 163 152 167 174 168 152 147 130 108 98 91 89 87 77 72 67 59 54 56 52 51 45 35 28 22 16 10 6 6 9
195 192 193 182 190 189 189 188 188 187 190 190 184 180 181 186 188 202 176 174 166 153 130 112 96 81 86 101 75 56 37 38 34 23 21 16 10 4 358 352 354 357 1
197 205 200 193 201 194 200 198 201 202 201 202 206 203 200 200 197 202 208 207 208 209 209 217 211 245 253 260 296 297 353 347 352 352 347 346 346 346 342 342 342 343 343
202 207 210 207 205 208 205 205 209 212 214 215 218 217 216 217 216 217 224 227 230 234 237 245 254 266 269 273 289 290 301 312 318 327 330 334 334 332 332 332 332 329 324
205 207 214 214 213 214 215 214 216 218 219 224 227 230 228 229 231 231 235 240 243 242 247 253 260 268 278 281 282 286 290 302 311 313 317 321 327 326 324 327 326 321 324
207 208 212 219 218 220 222 225 226 226 225 230 232 235 235 235 239 240 242 244 248 254 259 263 267 273 284 290 290 292 293 296 301 306 310 316 316 317 316 318 320 322 322
208 208 214 221 219 222 226 227 231 232 231 236 238 241 242 241 242 244 246 249 251 256 263 268 275 284 292 294 298 295 296 297 298 301 303 306 306 312 315 320 318 321 323
214 214 217 221 221 223 226 228 234 239 236 236 242 244 246 246 245 247 248 250 254 257 263 274 280 284 292 301 303 302 301 299 301 300 302 303 306 308 309 319 315 319 318
213 211 213 220 222 224 226 230 233 238 238 234 238 244 246 249 248 247 249 250 256 259 263 272 278 279 285 288 292 298 304 300 298 294 302 301 301 292 313 311 312 316 320
212 209 210 214 220 222 222 225 229 234 235 236 240 243 245 247 250 248 255 251 255 257 260 267 273 280 282 287 290 298 295 299 294 296 302 296 291 293 311 306 304 312 316
212 213 212 217 220 222 227 229 233 239 239 243 245 250 241 247 249 249 252 249 252 255 257 261 269 274 277 282 283 290 303 307 283 286 287 287 276 288 305 297 304 313 312
217 218 218 222 223 225 228 230 234 239 241 240 243 244 246 246 248 249 247 250 250 252 252 259 262 265 273 280 281 276 282 270 275 282 287 297 288 296 290 292 288 307 310
225 223 224 224 226 228 231 231 235 239 239 245 249 251 253 248 250 252 252 250 250 253 253 260 266 270 270 275 279 280 282 279 281 280 271 279 293 285 289 296 301 315 324
232 230 231 231 231 233 234 238 236 241 246 249 251 251 251 250 249 251 252 251 251 247 248 253 259 263 267 269 272 279 283 285 291 283 285 287 293 278 286 287 283 310 302
235 235 237 236 238 239 239 239 241 242 246 247 247 248 250 248 246 247 251 250 253 254 246 251 255 258 261 262 265 271 282 285 288 290 288 299 289 277 274 255 308 304 296